Retour au catalogue

STARLINK-11733

ActifCommunicationsVLEO
NORAD 64072·PAYLOAD·🇺🇸 United States

Lancé May 21, 2025 depuis Cape Canaveral Space Force Station

Loading…

Prochains Passages (prochaines 24 heures)

TLE

FraisSource: CelesTrak SupGP

Époque: Sep 14, 2026, 15:12 UTC

1 64072C 25107J   26257.63381944 -.00029554  00000+0 -22967-3 0  2576
2 64072  43.0007  39.2773 0001564 264.8044 135.7615 15.70840239    18

Suivez STARLINK-11733 en temps réel avec AllMySat

Download on the App Store